sat.trackr.live / text

‹ back to catalog

STARLINK-34051

NORAD 64022 · 2025-102A

PAYLOAD ACTIVE UNKNOWN

§ Identity

Operator
Country
US
Launch date
2025-05-16
Launch site
AFWTR
Launch vehicle
Mass (kg)
RCS (m²)

Purposes: comms

External: N2YO · Heavens-Above · Gunter

§ Orbital elements

Epoch: 2026-09-20T22:49:24.290112Z

Period
94.14 min
Inclination
69.9992°
Eccentricity
0.0003472
Mean motion
15.29582405 rev/d
Perigee alt
474.7 km
Apogee alt
479.4 km
Semi-major
6,855.2 km
B*
3.5759e-4
RAAN
340.0143°
Arg perigee
269.4137°
Mean anomaly
90.6640°
Rev number
7,525

§ Raw data

STARLINK-340511 64022U 25102A   26263.95097558  .00010166  00000+0  35759-3 0  99962 64022  69.9992 340.0143 0003472 269.4137  90.6640 15.29582405 75258

JSON: /api/v1/satellites/64022 · /tle

For live sub-satellite position, see the globe view (requires WebGL).

§ Visibility from observer

Set your observer location to see the next 7 days of passes ≥ 10°. The values pass through the URL so the page stays shareable.

No JS? Fill the form by hand. The geolocation button needs JavaScript.